Flag for U.S.A. Weather past 2 weeks in Chicago, Illinois, U.S.A.

Now
32 °F

Clear.


Feels Like: 25 °F
Forecast: 32 / 49 °F
Wind: 8 mph from South

Location: Chicago Midway Airport


UV Index: 0 (Low)

Visibility: 10 mi


Pressure: 30.28 "Hg

Humidity: 64%

Dew point: 21 °F

Location of ChicagoLocation

Historic Weather in Chicago

°F

Chicago temperature yesterday

Maximum temperature yesterday: 36 °F (at 3:51 PM)
Minimum temperature yesterday: 27 °F (at 5:51 AM)
Average temperature yesterday: 32 °F

Past Weeks' High & Low Weather Summary

 TemperatureHumidityPressure
High80 °F (Apr 12, 2:51 PM)100% (Apr 3, 6:51 AM)30.28 "Hg (Apr 3, 6:51 AM)
Low27 °F (Apr 15, 5:51 AM)15% (Apr 11, 12:51 PM)29.35 "Hg (Apr 14, 2:51 AM)
Average47 °F61%29.90 "Hg
* Reported Apr 1 3:51 AM — Apr 16 3:51 AM, Chicago, Weather by CustomWeather, © 2014

Note: Actual official high and low records may vary slightly from our data, if they occured in-between our weather recording intervals... More about our weather records

Advertising

Historic Weather Conditions — Data for Previous 24 hours

 ConditionsComfort  
Time TempWeatherWind HumidityBarometerVisibility
3:51 AM
Apr 16
31 °FClear.8 mph67%30.28 "Hg10 mi
2:51 AM32 °FClear.5 mph64%30.27 "Hg10 mi
1:51 AM32 °FClear.6 mph64%30.26 "Hg10 mi
12:51 AM33 °FClear.5 mph61%30.26 "Hg10 mi
11:51 PM
Apr 15
34 °FClear.5 mph59%30.24 "Hg10 mi
10:51 PM34 °FClear.5 mph59%30.24 "Hg10 mi
9:51 PM35 °FClear.5 mph54%30.24 "Hg10 mi
8:51 PM35 °FPassing clouds.6 mph52%30.23 "Hg10 mi
7:51 PM36 °FBroken clouds.8 mph50%30.21 "Hg10 mi
6:51 PM35 °FBroken clouds.10 mph52%30.19 "Hg10 mi
5:51 PM36 °FBroken clouds.9 mph48%30.19 "Hg10 mi
4:51 PM35 °FPartly sunny.5 mph48%30.17 "Hg10 mi
3:51 PM36 °FPartly sunny.13 mph40%30.18 "Hg10 mi
2:51 PM35 °FPartly sunny.12 mph38%30.19 "Hg10 mi
1:51 PM35 °FPartly sunny.8 mph40%30.18 "Hg10 mi
12:51 PM34 °FPartly sunny.9 mph42%30.17 "Hg10 mi
11:51 AM34 °FPartly sunny.12 mph40%30.18 "Hg10 mi
10:51 AM33 °FPassing clouds.13 mph45%30.18 "Hg10 mi
9:51 AM31 °FPassing clouds.13 mph49%30.16 "Hg10 mi
8:51 AM30 °FPassing clouds.13 mph59%30.14 "Hg10 mi
7:51 AM28 °FPassing clouds.13 mph75%30.13 "Hg10 mi
6:51 AM27 °FPassing clouds.10 mph78%30.10 "Hg10 mi
5:51 AM27 °FPassing clouds.12 mph78%30.08 "Hg10 mi
Weather by CustomWeather, © 2014

See weather overview